CW1723 Weather Reports


Display with metric or nautical units.
time (UTC)temp
F
wind
direction
speed
MPH
gust
MPH
rain 1hr
in
rain 24hr
in
rain mn
in
humidity
%
barometer
mb
20190224020102 34 139 2.0 4.0 0.00 0.05 0.05 98 999.6
20190224014558 34 122 2.0 5.0 0.00 0.05 0.05 98 1000.3
20190224013113 33 98 1.0 4.0 0.00 0.05 0.05 98 1000.5
20190224011529 33 120 2.0 4.0 0.00 0.05 0.05 98 1001.7
20190224010032 33 148 1.0 4.0 0.00 0.05 0.05 98 1002.2
20190224004533 33 152 1.0 4.0 0.01 0.05 0.05 98 1002.8
20190224003032 33 118 2.0 6.0 0.01 0.05 0.05 98 1003.4
20190224001510 33 122 2.0 5.0 0.01 0.05 0.05 98 1004.4
20190224000006 33 106 2.0 4.0 0.01 0.05 0.05 98 1005.2
20190223234704 33 134 1.0 3.0 0.00 0.04 0.04 98 1006.2
20190223234502 33 136 0.0 2.0 0.00 0.04 0.04 98 1006.2
20190223233234 33 107 0.0 3.0 0.00 0.04 0.04 98 1006.5
20190223231624 33 122 1.0 3.0 0.00 0.04 0.04 98 1006.6
20190223230153 33 117 0.0 3.0 0.00 0.04 0.04 98 1006.9
20190223224631 34 79 1.0 3.0 0.00 0.04 0.04 98 1007.1
20190223223142 34 146 0.0 3.0 0.00 0.04 0.04 98 1007.6
20190223221621 34 91 1.0 3.0 0.00 0.04 0.04 98 1007.9
20190223220117 34 121 1.0 2.0 0.01 0.04 0.04 98 1008.5
20190223214611 34 136 1.0 3.0 0.01 0.04 0.04 98 1009.1
20190223213156 34 119 1.0 4.0 0.01 0.04 0.04 98 1009.2
20190223211640 34 141 0.0 2.0 0.01 0.04 0.04 98 1009.6
20190223210112 34 127 1.0 3.0 0.00 0.03 0.03 97 1009.8
20190223204632 34 119 0.0 2.0 0.01 0.03 0.03 97 1010.0
20190223203150 34 126 1.0 2.0 0.01 0.03 0.03 97 1010.1
20190223201552 34 67 1.0 3.0 0.01 0.03 0.03 97 1010.2
20190223200125 34 137 0.0 2.0 0.01 0.03 0.03 97 1010.8
20190223194502 34 150 0.0 2.0 0.01 0.02 0.02 97 1011.2
20190223193251 34 143 0.0 2.0 0.01 0.02 0.02 97 1011.3
20190223191642 35 145 0.0 3.0 0.02 0.02 0.02 97 1011.4
20190223190126 34 163 1.0 5.0 0.02 0.02 0.02 97 1011.4
20190223184650 34 167 2.0 6.0 0.01 0.01 0.01 97 1011.8
20190223183115 33 120 2.0 6.0 0.01 0.01 0.01 97 1012.5
20190223181636 33 137 3.0 7.0 0.00 0.00 0.00 97 1012.9
20190223180113 32 142 3.0 7.0 0.00 0.00 0.00 97 1013.2
20190223174623 32 141 1.0 9.0 0.00 0.00 0.00 97 1014.2
20190223173058 32 127 2.0 6.0 0.00 0.00 0.00 97 1014.9
20190223171633 32 129 1.0 6.0 0.00 0.00 0.00 97 1016.3
20190223164610 32 132 0.0 3.0 0.00 0.00 0.00 97 1017.5
20190223163104 31 132 1.0 7.0 0.00 0.00 0.00 97 1017.0
20190223161530 31 58 1.0 5.0 0.00 0.00 0.00 97 1017.6
20190223160052 31 106 1.0 4.0 0.00 0.00 0.00 97 1017.6
20190223154525 31 92 2.0 7.0 0.00 0.00 0.00 97 1018.1
20190223153040 31 94 1.0 5.0 0.00 0.00 0.00 97 1018.3
20190223151516 31 110 1.0 4.0 0.00 0.00 0.00 96 1018.5
20190223150021 31 56 2.0 6.0 0.00 0.00 0.00 96 1019.4
20190223144517 31 33 5.0 9.0 0.00 0.00 0.00 96 1018.6
20190223143005 31 34 2.0 6.0 0.00 0.00 0.00 95 1019.5
20190223141504 32 27 1.0 4.0 0.00 0.00 0.00 93 1019.6
20190223140003 32 300 0.0 3.0 0.00 0.00 0.00 91 1020.1
20190223134725 32 149 0.0 1.0 0.00 0.00 0.00 90 1019.4
20190223133247 32 133 0.0 1.0 0.00 0.00 0.00 90 1018.9
20190223131656 32 139 0.0 3.0 0.00 0.00 0.00 88 1019.1
20190223130120 33 135 0.0 4.0 0.00 0.00 0.00 87 1019.3
20190223124643 33 119 1.0 4.0 0.00 0.00 0.00 86 1019.3
20190223123118 32 103 1.0 5.0 0.00 0.00 0.00 86 1019.3
20190223121646 32 133 1.0 5.0 0.00 0.00 0.00 85 1019.1
20190223120134 33 132 1.0 4.0 0.00 0.00 0.00 85 1019.4
20190223114649 33 95 2.0 6.0 0.00 0.00 0.00 84 1019.9
20190223113120 33 107 1.0 5.0 0.00 0.00 0.00 84 1020.4
20190223111703 33 138 1.0 3.0 0.00 0.00 0.00 84 1020.6
20190223110138 33 113 1.0 3.0 0.00 0.00 0.00 83 1021.0
20190223104559 33 131 1.0 4.0 0.00 0.00 0.00 83 1021.4
20190223103050 32 148 1.0 5.0 0.00 0.00 0.00 83 1021.3
20190223101604 32 151 1.0 5.0 0.00 0.00 0.00 83 1021.2
20190223100142 32 122 1.0 4.0 0.00 0.00 0.00 83 1021.4
20190223094606 32 131 1.0 6.0 0.00 0.00 0.00 83 1021.6
20190223093049 32 108 1.0 6.0 0.00 0.00 0.00 83 1021.9
20190223091604 32 115 1.0 3.0 0.00 0.00 0.00 83 1022.4
20190223090034 32 144 0.0 5.0 0.00 0.00 0.00 82 1022.6
20190223084621 33 113 0.0 2.0 0.00 0.00 0.00 82 1023.2
20190223083036 33 101 1.0 5.0 0.00 0.00 0.00 82 1023.2
20190223081551 33 131 0.0 4.0 0.00 0.00 0.00 82 1023.7
20190223080040 33 125 1.0 4.0 0.00 0.00 0.00 82 1024.0
20190223074532 33 148 1.0 5.0 0.00 0.00 0.00 83 1024.1
20190223073011 33 132 1.0 5.0 0.00 0.00 0.00 84 1024.4
20190223071510 33 119 2.0 5.0 0.00 0.00 0.00 84 1024.5
20190223070009 33 141 1.0 6.0 0.00 0.00 0.00 85 1024.8
20190223064644 32 114 1.0 3.0 0.00 0.00 0.00 86 1025.3
20190223063219 32 110 1.0 3.0 0.00 0.00 0.00 86 1025.7
20190223061659 32 127 1.0 4.0 0.00 0.00 0.00 86 1025.6
20190223060154 32 138 0.0 3.0 0.00 0.00 0.00 86 1025.7
20190223054706 32 148 0.0 4.0 0.00 0.00 0.00 87 1025.9
20190223053214 31 153 2.0 5.0 0.00 0.00 0.00 87 1025.7
20190223051815 31 65 1.0 4.0 0.00 0.00 0.00 88 1026.2
20190223050137 30 99 1.0 4.0 0.00 0.00 0.00 88 1026.7
20190223044650 30 113 0.0 3.0 0.00 0.00 0.00 88 1027.2
20190223043116 30 111 0.0 3.0 0.00 0.00 0.00 88 1027.5
20190223041616 30 124 1.0 3.0 0.00 0.00 0.00 88 1027.9
20190223040134 29 94 1.0 5.0 0.00 0.00 0.00 88 1027.9
20190223034622 29 127 1.0 4.0 0.00 0.00 0.00 88 1028.6
20190223033111 29 102 1.0 4.0 0.00 0.00 0.00 87 1028.9
20190223031552 29 148 0.0 3.0 0.00 0.00 0.00 87 1029.1
20190223030120 29 139 0.0 3.0 0.00 0.00 0.00 87 1029.1
20190223024549 29 117 0.0 3.0 0.00 0.00 0.00 86 1029.1
20190223023143 29 115 2.0 5.0 0.00 0.00 0.00 86 1029.1
20190223021541 29 97 1.0 5.0 0.00 0.00 0.00 86 1029.3